Regional Weather Roundup
Issued by NWS

Home | Current Version | Previous Version | Graphics & Text | Print | Product List | Glossary Off
Versions: 1 2 3 4 5 6 7 8 9 10 11 12 13 14 15 16 17 18 19 20 21 22 23 24 25 26 27 28 29 30 31 32 33 34 35 36 37 38 39 40 41 42 43 44 45 46 47 48 49 50

000
ASUS43 KMKX 231700
RWRWI

WISCONSIN REGIONAL WEATHER ROUNDUP
NATIONAL WEATHER SERVICE MILWAUKEE/SULLIVAN WI
1100 AM CST TUE JAN 23 2018

NOTE: "FAIR" INDICATES FEW OR NO CLOUDS BELOW 12,000 FEET WITH NO
SIGNIFICANT WEATHER AND/OR OBSTRUCTIONS TO VISIBILITY.

WIZ001-002-006>008-014>016-023>028-231800-
NORTHWEST WISCONSIN

CITY           SKY/WX    TMP DP  RH WIND       PRES   REMARKS
SUPERIOR ARPT  FAIR      12   2  64 W3        30.07R
ASHLAND        CLOUDY    19  13  77 N7        30.02R WCI  10
HAYWARD        CLOUDY    18  11  74 N7        29.98R WCI   9
SIREN          FAIR      16   7  67 N6        30.04R WCI   8
CUMBERLAND     FAIR      18  10  73 N10       29.97R WCI   6
RICE LAKE      CLOUDY    17  12  80 NW8       30.00R WCI   7
CHETEK         CLOUDY    18  14  82 CALM      29.98R
LADYSMITH      CLOUDY    20  16  83 N17       29.95R WCI   6
EAU CLAIRE     NOT AVBL
MENOMONIE      PTSUNNY   20  13  73 NW12      29.99R WCI   8
NEW RICHMOND   FAIR      18   9  69 N12       30.02R WCI   5
OSCEOLA        FAIR      18  10  69 NW10      30.06R WCI   6
$$

WIZ003>005-009-010-017-018-231800-
NORTH CENTRAL WISCONSIN

CITY           SKY/WX    TMP DP  RH WIND       PRES   REMARKS
MANITOWISH WTR FLURRIES  17  16  97 NW10G17   29.89R WCI   4
ARBOR VITAE    CLOUDY    19  16  88 N13       29.88R WCI   6
WOODRUFF       CLOUDY    19  16  88 N13       29.88R WCI   6
RHINELANDER    CLOUDY    19  15  84 N10G20    29.86R WCI   7
EAGLE RIVER    CLOUDY    18  17  95 N14G21    29.85R WCI   4
LAND O LAKES   CLOUDY    19  17  93 N13       29.87R FOG     WCI   5
PHILLIPS       FLURRIES  18  14  86 NW8       29.91R WCI   7
TOMAHAWK       CLOUDY    19  14  81 NW10G18   29.88R WCI   7
MEDFORD        CLOUDY    19  15  86 N13G20    29.88R WCI   6
MERRILL        CLOUDY    21  16  80 N14       29.88R WCI   8
$$

WIZ029-030-035-036-043>047-231800-
CENTRAL WISCONSIN

CITY           SKY/WX    TMP DP  RH WIND       PRES   REMARKS
WAUSAU         CLOUDY    21  16  81 N14G26    29.86R WCI   8
MOSINEE        CLOUDY    21  18  86 NW17      29.88R WCI   7
MARSHFIELD     CLOUDY    21  17  84 NW14G30   29.89R WCI   8
STEVENS POINT  CLOUDY    21  18  88 N10G18    29.87R WCI  10
WAUPACA        CLOUDY    28  20  75 NW17      29.84R WCI  15
WAUTOMA        CLOUDY    26  20  77 NW10G20   29.88R WCI  16
WISC RAPIDS    NOT AVBL
CAMP DOUGLAS   CLOUDY    23  21  93 NW15      29.91R WCI  10
$$

WIZ011>013-019>022-031-037>040-048>050-231800-
NORTHEAST WISCONSIN

CITY           SKY/WX    TMP DP  RH WIND       PRES   REMARKS
ANTIGO         CLOUDY    19  17  88 N17G23    29.82R WCI   4
SHAWANO        CLOUDY    28  21  75 N8        29.84R WCI  20
OCONTO         CLOUDY    25  20  80 N10G16    29.80R WCI  15
STURGEON BAY   CLOUDY    26  22  84 NW18      29.77R WCI  13
GREEN BAY      CLOUDY    27  21  78 NW14G22   29.83R WCI  16
MANITOWOC      CLOUDY    26  21  81 NW18G24   29.79R WCI  13
APPLETON       CLOUDY    27  19  74 NW13G20   29.80R WCI  16
CLINTONVILLE   CLOUDY    27  19  74 N14G20    29.83R WCI  15
OSHKOSH        CLOUDY    27  21  78 NW13G23   29.82R WCI  16
$$

WIZ032>034-041-042-053>061-231800-
SOUTHWEST WISCONSIN

CITY           SKY/WX    TMP DP  RH WIND       PRES   REMARKS
LA CROSSE      CLOUDY    25  19  78 N16       29.98R WCI  12
SPARTA         CLOUDY    24  20  87 N8        29.95R WCI  15
VIROQUA        CLOUDY    23  23 100 NW17      29.92R WCI   9
BOSCOBEL       CLOUDY    28  22  78 NW8       29.95R WCI  20
PRAIRIE DU CHI CLOUDY    26  20  79 NW10G18   29.96R WCI  16
PLATTEVILLE    CLOUDY    29  28  96 NW16      29.90R WCI  17
$$

WIZ056-057-062-063-064-067-068-231800-
SOUTH CENTRAL WISCONSIN

CITY           SKY/WX    TMP DP  RH WIND       PRES   REMARKS
REEDSBURG      CLOUDY    25  23  93 NW10      29.89R WCI  15
BARABOO/DELLS  CLOUDY    25  22  87 NW8G17    29.87R WCI  17
LONE ROCK      CLOUDY    27  23  85 NW14G21   29.92R WCI  16
MINERAL POINT  CLOUDY    30  28  93 NW13      29.87R WCI  20
MADISON        FLURRIES  27  21  78 NW12G20   29.87R WCI  17
MIDDLETON      CLOUDY    29  24  82 NW14G20   29.86R WCI  18
WATERTOWN      CLOUDY    27  24  88 NW12      29.82R WCI  16
MONROE         CLOUDY    28  23  80 NW12G20   29.86R WCI  18
JANESVILLE     CLOUDY    28  28 100 NW12G17   29.85R WCI  18
$$

WIZ051-052-058>065-066-070>072-231800-
SOUTHEAST WISCONSIN

CITY           SKY/WX    TMP DP  RH WIND       PRES   REMARKS
MILWAUKEE      CLOUDY    29  24  82 NW18G25   29.80R WCI  16
WAUKESHA       CLOUDY    25  21  86 NW14G20   29.82R WCI  13
MILWAUKEE/TIMM CLOUDY    28  19  69 NW16G23   29.81R WCI  17
RACINE         CLOUDY    29  25  85 NW13G20   29.82R WCI  19
BURLINGTON     FAIR      27  23  84 NW10      29.81R WCI  17
KENOSHA        CLOUDY    28  24  85 NW12      29.81R WCI  18
FOND DU LAC    MIX PCPN  28  20  71 NW17      29.82R WCI  16
SHEBOYGAN      CLOUDY    27  21  78 NW16G26   29.79R WCI  15
WEST BEND      CLOUDY    27  23  86 NW15G22   29.80R WCI  15
JUNEAU         CLOUDY    26  21  83 NW12G21   29.83R WCI  15
$$

LSZ147-162-231800-
LAKE SUPERIOR

STATION/POSITION TIME  TEMP    WIND        PRES    WAVE
                       AIR SEA DIR/SP/G            HT/PER
                 (UTC) (F)     (DEG/KT/KT) (MB)    (FT/S)
DEVILS ISLAND    1600   22      40/ 16/ 17 1017.1R
SAXON HARBOR     1630   22      10/ 13/ 15 1015.6R
$$

LMZ867-665-643>646-231800-
LAKE MICHIGAN

STATION/POSITION TIME  TEMP    WIND        PRES    WAVE
                       AIR SEA DIR/SP/G            HT/PER
                 (UTC) (F)     (DEG/KT/KT) (MB)    (FT/S)
NORTHPORT PIER   1640   26     350/  8/ 14 1007.5R
KEWAUNEE LAKESHO 1630   26     340/ 14/ 23 1007.4R
SHEBOYGAN LAKESH 1600   28     340/ 17/ 20 1008.4R
PORT WASHINGTON  1640   28     320/  8/ 17 1010.2R
MILWAUKEE LAKESH 1640   28     330/ 10/ 14   N/A
KENOSHA   LAKESH 1600   29     330/ 12/ 17 1008.5
$$

TC  - TEMPERATURE IN CELSIUS
VSB - VISIBILITY IN STATUTE MILES
WCI - WIND CHILL INDEX
HX  - HEAT INDEX




USA.gov is the U.S. government's official web portal to all federal, state and local government web resources and services.